SB KEPS @ AMSAT $ORB08206.O Orbital Elements 08206.OSCAR
HR AMSAT ORBITAL ELEMENTS FOR OSCAR SATELLITES FROM WA5QGD FORT WORTH,TX July 24, 2008 Send Subscribe/unsubscribe to KEPS at http://www.amsat.org/mailman/listinfo/keps BID: ORB08206.O TO ALL RADIO AMATEURS BT
Satellite: AO-07 Catalog number: 07530 Epoch time: 08205.60553782 Element set: 234 Inclination: 101.4631 deg RA of node: 235.8812 deg Eccentricity: 0.0011857 Arg of perigee: 189.7460 deg Mean anomaly: 170.3386 deg Mean motion: 12.53573815 rev/day Decay rate: -2.7e-07 rev/day^2 Epoch rev: 54154 Checksum: 292
Satellite: AO-10 Catalog number: 14129 Epoch time: 08205.15414315 Element set: 0534 Inclination: 026.0038 deg RA of node: 204.1976 deg Eccentricity: 0.5975098 Arg of perigee: 142.4911 deg Mean anomaly: 280.0106 deg Mean motion: 02.05869161 rev/day Decay rate: 5.6e-07 rev/day^2 Epoch rev: 18884 Checksum: 288
Satellite: UO-11 Catalog number: 14781 Epoch time: 08206.58188530 Element set: 727 Inclination: 098.1518 deg RA of node: 241.1703 deg Eccentricity: 0.0008574 Arg of perigee: 319.5732 deg Mean anomaly: 040.4771 deg Mean motion: 14.79657993 rev/day Decay rate: 6.96e-06 rev/day^2 Epoch rev: 30938 Checksum: 334
Satellite: RS-15 Catalog number: 23439 Epoch time: 08205.90953277 Element set: 0151 Inclination: 064.8153 deg RA of node: 075.6674 deg Eccentricity: 0.0147172 Arg of perigee: 115.7122 deg Mean anomaly: 245.9077 deg Mean motion: 11.27552294 rev/day Decay rate: -3.9e-07 rev/day^2 Epoch rev: 55910 Checksum: 310
Satellite: FO-29 Catalog number: 24278 Epoch time: 08206.54258989 Element set: 821 Inclination: 098.5853 deg RA of node: 117.9441 deg Eccentricity: 0.0351269 Arg of perigee: 118.8172 deg Mean anomaly: 244.8719 deg Mean motion: 13.52938406 rev/day Decay rate: -5.0e-08 rev/day^2 Epoch rev: 58944 Checksum: 354
Satellite: SO-33 Catalog number: 25509 Epoch time: 08206.79553737 Element set: 248 Inclination: 031.4337 deg RA of node: 103.6995 deg Eccentricity: 0.0354743 Arg of perigee: 355.9448 deg Mean anomaly: 003.8330 deg Mean motion: 14.28217072 rev/day Decay rate: 4.2e-07 rev/day^2 Epoch rev: 50899 Checksum: 320
Satellite: AO-40 Catalog number: 26609 Epoch time: 08203.04343986 Element set: 94 Inclination: 007.6232 deg RA of node: 071.1288 deg Eccentricity: 0.7921784 Arg of perigee: 103.6197 deg Mean anomaly: 345.9112 deg Mean motion: 01.25585283 rev/day Decay rate: -2.01e-06 rev/day^2 Epoch rev: 3546 Checksum: 298
Satellite: VO-52 Catalog number: 28650 Epoch time: 08205.60849074 Element set: 987 Inclination: 097.7869 deg RA of node: 271.2165 deg Eccentricity: 0.0027647 Arg of perigee: 024.4857 deg Mean anomaly: 335.7522 deg Mean motion: 14.81483359 rev/day Decay rate: -1.1e-07 rev/day^2 Epoch rev: 17399 Checksum: 347
Satellite: PO-63 Catalog number: 29712 Epoch time: 08206.74180829 Element set: 646 Inclination: 097.8735 deg RA of node: 264.2209 deg Eccentricity: 0.0012863 Arg of perigee: 259.6390 deg Mean anomaly: 100.3385 deg Mean motion: 14.80219655 rev/day Decay rate: 4.10e-06 rev/day^2 Epoch rev: 8302 Checksum: 308
/EX SB KEPS @ AMSAT $ORB08206.D Orbital Elements 08206.MICROS
HR AMSAT ORBITAL ELEMENTS FOR THE MICROSATS FROM WA5QGD FORT WORTH,TX July 24, 2008 Send Subscribe/unsubscribe to KEPS at http://www.amsat.org/mailman/listinfo/keps BID: ORB08206.D TO ALL RADIO AMATEURS BT
Satellite: AO-16 Catalog number: 20439 Epoch time: 08205.54958809 Element set: 0376 Inclination: 098.2315 deg RA of node: 183.7565 deg Eccentricity: 0.0011962 Arg of perigee: 069.6963 deg Mean anomaly: 290.5507 deg Mean motion: 14.31798612 rev/day Decay rate: -1.4e-07 rev/day^2 Epoch rev: 96612 Checksum: 336
Satellite: LO-19 Catalog number: 20442 Epoch time: 08205.59086980 Element set: 0302 Inclination: 098.2019 deg RA of node: 192.2220 deg Eccentricity: 0.0012929 Arg of perigee: 067.5186 deg Mean anomaly: 292.7356 deg Mean motion: 14.32036837 rev/day Decay rate: -2.6e-07 rev/day^2 Epoch rev: 96628 Checksum: 312
Satellite: AO-27 Catalog number: 22825 Epoch time: 08205.60452323 Element set: 23 Inclination: 098.3862 deg RA of node: 164.2647 deg Eccentricity: 0.0008769 Arg of perigee: 147.6245 deg Mean anomaly: 212.5456 deg Mean motion: 14.29243241 rev/day Decay rate: 1.8e-07 rev/day^2 Epoch rev: 77297 Checksum: 307
Satellite: IO-26 Catalog number: 22826 Epoch time: 08206.84215316 Element set: 730 Inclination: 098.3789 deg RA of node: 166.3485 deg Eccentricity: 0.0009326 Arg of perigee: 140.8705 deg Mean anomaly: 219.3160 deg Mean motion: 14.29492364 rev/day Decay rate: -1.9e-07 rev/day^2 Epoch rev: 77324 Checksum: 317
Satellite: PO-28 Catalog number: 22829 Epoch time: 08206.25055076 Element set: 997 Inclination: 098.3678 deg RA of node: 166.8776 deg Eccentricity: 0.0010721 Arg of perigee: 117.0274 deg Mean anomaly: 243.2035 deg Mean motion: 14.30194473 rev/day Decay rate: 2.17e-06 rev/day^2 Epoch rev: 77342 Checksum: 317
Satellite: GO-32 Catalog number: 25397 Epoch time: 08206.65450152 Element set: 654 Inclination: 098.3612 deg RA of node: 239.9629 deg Eccentricity: 0.0002204 Arg of perigee: 115.0510 deg Mean anomaly: 245.0896 deg Mean motion: 14.23145767 rev/day Decay rate: -9.9e-07 rev/day^2 Epoch rev: 52154 Checksum: 301
Satellite: NO-44 Catalog number: 26931 Epoch time: 08205.45710849 Element set: 0935 Inclination: 067.0512 deg RA of node: 191.2185 deg Eccentricity: 0.0007315 Arg of perigee: 269.3633 deg Mean anomaly: 090.6622 deg Mean motion: 14.29529182 rev/day Decay rate: 5.8e-07 rev/day^2 Epoch rev: 35559 Checksum: 314
Satellite: SO-50 Catalog number: 27607 Epoch time: 08206.32066557 Element set: 659 Inclination: 064.5610 deg RA of node: 300.8658 deg Eccentricity: 0.0086271 Arg of perigee: 272.2070 deg Mean anomaly: 086.9165 deg Mean motion: 14.71369361 rev/day Decay rate: -3.5e-07 rev/day^2 Epoch rev: 30043 Checksum: 299
Satellite: CO-55 Catalog number: 27844 Epoch time: 08205.99155813 Element set: 357 Inclination: 098.7151 deg RA of node: 213.7456 deg Eccentricity: 0.0010539 Arg of perigee: 015.7503 deg Mean anomaly: 344.4012 deg Mean motion: 14.20588888 rev/day Decay rate: 2.0e-07 rev/day^2 Epoch rev: 26266 Checksum: 309
Satellite: CO-57 Catalog number: 27848 Epoch time: 08206.55814194 Element set: 308 Inclination: 098.7161 deg RA of node: 213.3940 deg Eccentricity: 0.0010505 Arg of perigee: 016.8340 deg Mean anomaly: 343.3212 deg Mean motion: 14.20397816 rev/day Decay rate: 3.9e-07 rev/day^2 Epoch rev: 26271 Checksum: 292
Satellite: AO-51 Catalog number: 28375 Epoch time: 08206.69375311 Element set: 156 Inclination: 098.0691 deg RA of node: 229.1516 deg Eccentricity: 0.0085281 Arg of perigee: 039.2447 deg Mean anomaly: 321.4884 deg Mean motion: 14.40613940 rev/day Decay rate: -6.0e-08 rev/day^2 Epoch rev: 21380 Checksum: 301
Satellite: CO-56 Catalog number: 28941 Epoch time: 08206.83791568 Element set: 234 Inclination: 098.1096 deg RA of node: 322.7504 deg Eccentricity: 0.0160224 Arg of perigee: 263.9088 deg Mean anomaly: 094.3874 deg Mean motion: 15.58357039 rev/day Decay rate: 1.4105e-04 rev/day^2 Epoch rev: 13590 Checksum: 332
Satellite: CP4 Catalog number: 31122 Epoch time: 08206.15645384 Element set: 394 Inclination: 098.0418 deg RA of node: 270.3776 deg Eccentricity: 0.0085087 Arg of perigee: 213.0049 deg Mean anomaly: 146.5834 deg Mean motion: 14.55145118 rev/day Decay rate: 5.50e-06 rev/day^2 Epoch rev: 6745 Checksum: 297
Satellite: CP3 Catalog number: 31128 Epoch time: 08206.89275740 Element set: 388 Inclination: 098.0346 deg RA of node: 268.7340 deg Eccentricity: 0.0102170 Arg of perigee: 217.4964 deg Mean anomaly: 141.9063 deg Mean motion: 14.51961686 rev/day Decay rate: -4.8e-07 rev/day^2 Epoch rev: 6740 Checksum: 310
/EX SB KEPS @ AMSAT $ORB08206.W Orbital Elements 08206.WEATHER
HR AMSAT ORBITAL ELEMENTS FOR WEATHER SATELLITES FROM WA5QGD FORT WORTH,TX July 24, 2008 Send Subscribe/unsubscribe to KEPS at http://www.amsat.org/mailman/listinfo/keps BID: ORB08206.W TO ALL RADIO AMATEURS BT
Satellite: NOAA-10 Catalog number: 16969 Epoch time: 08206.51742263 Element set: 217 Inclination: 098.7213 deg RA of node: 228.4101 deg Eccentricity: 0.0013288 Arg of perigee: 073.7611 deg Mean anomaly: 286.5046 deg Mean motion: 14.27365106 rev/day Decay rate: 1.24e-06 rev/day^2 Epoch rev: 13676 Checksum: 289
Satellite: NOAA-11 Catalog number: 19531 Epoch time: 08206.15276406 Element set: 247 Inclination: 098.7987 deg RA of node: 294.9636 deg Eccentricity: 0.0011224 Arg of perigee: 326.8083 deg Mean anomaly: 033.2379 deg Mean motion: 14.14874849 rev/day Decay rate: 2.92e-06 rev/day^2 Epoch rev: 2313 Checksum: 317
Satellite: NOAA-12 Catalog number: 21263 Epoch time: 08206.68266582 Element set: 765 Inclination: 098.7670 deg RA of node: 208.6306 deg Eccentricity: 0.0013030 Arg of perigee: 021.0229 deg Mean anomaly: 339.1483 deg Mean motion: 14.25539613 rev/day Decay rate: 1.1e-07 rev/day^2 Epoch rev: 89373 Checksum: 292
Satellite: MET-3/5 Catalog number: 21655 Epoch time: 08205.96228591 Element set: 0477 Inclination: 082.5538 deg RA of node: 078.4059 deg Eccentricity: 0.0012411 Arg of perigee: 285.3382 deg Mean anomaly: 074.6368 deg Mean motion: 13.17016457 rev/day Decay rate: 5.1e-07 rev/day^2 Epoch rev: 81442 Checksum: 311
Satellite: MET-2/21 Catalog number: 22782 Epoch time: 08205.65577829 Element set: 0205 Inclination: 082.5457 deg RA of node: 082.6502 deg Eccentricity: 0.0022151 Arg of perigee: 184.1476 deg Mean anomaly: 175.9507 deg Mean motion: 13.83630891 rev/day Decay rate: 5.4e-07 rev/day^2 Epoch rev: 75217 Checksum: 311
Satellite: OKEAN-4 Catalog number: 23317 Epoch time: 08206.51368844 Element set: 648 Inclination: 082.5396 deg RA of node: 280.2414 deg Eccentricity: 0.0022513 Arg of perigee: 009.0475 deg Mean anomaly: 351.1167 deg Mean motion: 14.82624926 rev/day Decay rate: 1.75e-06 rev/day^2 Epoch rev: 74381 Checksum: 299
